Meteo Giornale » Osservazioni meteo Russia » Uytash
ore: 20:00 - Osservazioni Meteo Uytash
Lat. 42° 49' N Lon. 47° 39' E Alt. 4 metri s.l.m.
22 °C
Molto Nuvoloso
Temp. 24 Ore
20 °C
26 °C
Nord
3.6 Km/h
Dew point 13 °C
Umidità 56 %
Visibilità 10 Km
Il sole sorge alle ore 05:12
Il sole tramonta alle ore 18:26
| Data e Ora | Cielo e Fenomeni | T °C | DP °C | Um. % | Pres. hPa | Vis. km | Vento km/h | |
|---|---|---|---|---|---|---|---|---|
| Oggi h: 20:00 | Molto Nuvoloso | 22 | 13 | 56 | 1018 | 10 | N 3.6 | |
| Oggi h: 19:30 | Molto Nuvoloso | 22 | 13 | 56 | 1017 | 10 | N 7.2 | |
| Oggi h: 19:00 | Nuvoloso | 23 | 13 | 53 | 1017 | 10 | N 7.2 | |
| Oggi h: 18:30 | Nuvoloso | 23 | 13 | 53 | 1017 | 10 | SE 10.8 | |
| Oggi h: 18:00 | Nuvoloso | 23 | 12 | 49 | 1017 | 10 | SE 14.4 | |
| Oggi h: 17:30 | Nuvoloso | 24 | 13 | 50 | 1017 | 10 | SE 14.4 | |
| Oggi h: 17:00 | Nuvoloso | 24 | 13 | 50 | 1017 | 10 | SE 18 | |
| Oggi h: 16:30 | Poco Nuvoloso | 25 | 14 | 50 | 1017 | 10 | SE 14.4 | |
| Oggi h: 16:00 | Poco Nuvoloso | 24 | 15 | 57 | 1017 | 10 | SE 14.4 | |
| Oggi h: 15:30 | Poco Nuvoloso | 24 | 15 | 57 | 1017 | 10 | E/SE 14.4 | |
| Oggi h: 15:00 | Poco Nuvoloso | 24 | 15 | 57 | 1017 | 10 | S/SE 14.4 | |
| Oggi h: 14:30 | Sereno | 24 | 16 | 60 | 1017 | 10 | SE 18 | |
| Oggi h: 14:00 | Sereno | 25 | 14 | 50 | 1017 | 10 | SE 21.6 | |
| Oggi h: 13:30 | Sereno | 25 | 14 | 50 | 1017 | 10 | E/SE 25.2 | |
| Oggi h: 13:00 | Sereno | 25 | 14 | 50 | 1017 | 10 | SE 25.2 | |
| Oggi h: 12:30 | Sereno | 26 | 14 | 47 | 1017 | 10 | E/SE 21.6 | |
| Oggi h: 12:00 | Poco Nuvoloso | 26 | 14 | 47 | 1017 | 10 | SE 18 | |
| Oggi h: 11:30 | Sereno | 25 | 14 | 50 | 1018 | 10 | SE 21.6 | |
| Oggi h: 11:00 | Poco Nuvoloso | 25 | 14 | 50 | 1018 | 10 | SE 18 | |
| Oggi h: 10:30 | Sereno | 26 | 14 | 47 | 1018 | 10 | SE 18 | |
| Oggi h: 10:00 | Poco Nuvoloso | 25 | 14 | 50 | 1018 | 10 | SE 18 | |
| Oggi h: 09:30 | Poco Nuvoloso | 24 | 14 | 53 | 1018 | 10 | SE 18 | |
| Oggi h: 09:00 | Nuvoloso | 24 | 14 | 53 | 1018 | 10 | E/SE 18 | |
| Oggi h: 08:30 | Nuvoloso | 24 | 14 | 53 | 1018 | 10 | E/SE 14.4 | |
| Oggi h: 08:00 | Nuvoloso | 23 | 14 | 56 | 1018 | 10 | E/SE 14.4 | |
| Oggi h: 07:30 | Nuvoloso | 23 | 14 | 56 | 1018 | 10 | SE 10.8 | |
| Oggi h: 07:00 | Nuvoloso | 23 | 14 | 56 | 1018 | 10 | SE 14.4 | |
| Oggi h: 06:30 | Nuvoloso | 22 | 15 | 64 | 1017 | 10 | N 3.6 | |
| Oggi h: 06:00 | Poco Nuvoloso | 22 | 15 | 64 | 1017 | 10 | N 3.6 | |
| Oggi h: 05:30 | Poco Nuvoloso | 20 | 16 | 77 | 1017 | 10 | N 0 | |
| Oggi h: 05:00 | Poco Nuvoloso | 20 | 16 | 77 | 1017 | 10 | N 0 | |
| Oggi h: 04:30 | Sereno | 20 | 15 | 72 | 1018 | 10 | N 0 | |
| Oggi h: 04:00 | Sereno | 20 | 16 | 77 | 1017 | 10 | N 3.6 | |
| Oggi h: 03:30 | Nuvoloso | 21 | 16 | 73 | 1017 | 10 | N 3.6 | |
| Oggi h: 03:00 | Nuvoloso | 21 | 16 | 73 | 1017 | 10 | N 7.2 | |
| Oggi h: 02:30 | Nuvoloso | 21 | 16 | 73 | 1017 | 10 | N 7.2 | |
| Oggi h: 02:00 | Nuvoloso | 21 | 16 | 73 | 1018 | 10 | N 0 | |
| Oggi h: 01:30 | Nuvoloso | 21 | 16 | 73 | 1018 | 10 | N 0 | |
| Oggi h: 01:00 | Nuvoloso | 21 | 16 | 73 | 1018 | 10 | N 7.2 | |
| Oggi h: 00:30 | Nuvoloso | 21 | 17 | 77 | 1018 | 10 | N 3.6 | |
| Oggi h: 00:00 | Nuvoloso | 21 | 16 | 73 | 1018 | 10 | N 7.2 | |
| Ieri h: 23:30 | Nuvoloso | 21 | 16 | 73 | 1018 | 10 | N 7.2 | |
| Ieri h: 23:00 | Nuvoloso | 21 | 16 | 73 | 1018 | 10 | N 3.6 | |
| Ieri h: 22:30 | Nuvoloso | 21 | 17 | 77 | 1018 | 10 | N 7.2 | |
| Ieri h: 22:00 | Nuvoloso | 22 | 17 | 73 | 1018 | 10 | N 7.2 | |
| Ieri h: 21:30 | Nuvoloso | 22 | 16 | 68 | 1017 | 10 | N 3.6 | |
| Ieri h: 21:00 | Nuvoloso | 22 | 16 | 68 | 1018 | 10 | O/SO 10.8 | |



